CAPE
nan nan nan nan nan nan nan nan nan nan nan nan nan nan nan nan nan nan nan nan nan nan nan nan nan nan nan 0 2 2 2 3 3 3 3 2 1 1 0 0 0 nan nan nan nan nan nan nan nan nan nan nan nan nan nan nan nan 0 2 4 4 7 9 11 11 14 15 16 14 14 11 8 7 7 3 3 4 4 7 10 10 9 9 8 8 8
nan nan nan nan nan nan nan nan nan nan nan nan nan nan nan nan nan nan nan nan nan nan nan nan nan nan nan nan 1 1 2 2 2 2 1 1 0 0 0 nan nan nan nan nan nan nan nan nan nan nan nan nan nan nan nan nan nan nan nan 0 0 3 5 6 6 8 8 11 9 9 6 3 2 2 2 3 6 6 10 12 12 12 10 9 9 8
nan nan nan nan nan nan nan nan nan nan nan nan nan nan nan nan nan nan nan nan nan nan nan nan nan nan nan nan nan nan 0 0 0 0 0 0 0 0 nan nan nan nan nan nan nan nan nan nan nan nan nan nan nan nan nan nan nan nan nan nan nan nan 1 2 2 2 3 3 4 4 1 0 0 0 1 4 9 9 11 13 13 11 9 10 10 10
nan nan nan nan nan nan nan nan nan nan nan nan nan nan nan nan nan nan nan nan nan nan nan nan nan nan nan nan nan nan nan nan nan nan nan nan nan nan nan nan nan nan nan nan nan nan nan nan nan nan nan nan nan nan nan nan nan nan nan nan nan nan nan 0 0 0 0 0 0 0 0 nan nan nan 1 4 9 9 10 10 10 8 9 9 9 9
nan nan nan nan nan nan nan nan nan nan nan nan nan nan nan nan nan nan nan nan nan nan nan nan nan nan nan nan nan nan nan nan nan nan nan nan nan nan nan nan nan nan nan nan nan nan nan nan nan nan nan nan nan nan nan nan nan nan nan nan nan nan nan nan nan nan 0 0 0 0 0 0 0 0 1 4 7 7 7 9 9 8 8 8 8 10
nan nan nan nan nan nan nan nan nan nan nan nan nan nan nan nan nan nan nan nan nan nan nan nan nan nan nan nan nan nan nan nan nan nan nan nan nan nan nan nan nan nan nan nan nan nan nan nan nan nan nan nan nan nan nan nan nan nan nan nan nan nan nan nan nan nan nan 0 0 0 0 1 1 1 1 2 4 4 5 7 7 7 7 7 7 7
nan nan nan nan nan nan nan nan nan nan nan nan nan nan nan nan nan nan nan nan nan nan nan nan nan nan nan nan nan nan nan nan nan nan nan nan nan nan nan nan nan nan nan nan nan nan nan nan nan nan nan nan nan nan nan nan nan nan nan nan nan nan nan nan nan nan nan 0 0 0 0 0 0 0 1 3 3 3 4 6 6 6 6 6 6 6
nan nan nan nan nan nan nan nan nan nan nan nan nan nan nan nan nan nan nan nan nan nan nan nan nan nan nan nan nan nan nan nan nan nan nan nan nan nan nan nan nan nan nan nan nan nan nan nan nan nan nan nan nan nan nan nan nan nan nan nan nan nan nan nan nan nan nan 0 1 1 2 2 3 3 5 6 6 6 5 5 5 5 6 6 6 6
nan nan nan nan nan nan nan nan nan nan nan nan nan nan nan nan nan nan nan nan nan nan nan nan nan nan nan nan nan nan nan nan nan nan nan nan nan nan nan nan nan nan nan nan nan nan nan nan nan nan nan nan nan nan nan nan nan nan nan nan nan nan nan nan nan nan nan 0 2 2 3 4 5 5 6 6 5 5 4 3 3 4 5 7 7 8
nan nan nan nan nan nan nan nan nan nan nan nan nan nan nan nan nan nan nan nan nan nan nan nan nan nan nan nan nan nan nan nan nan nan nan nan nan nan nan nan nan nan nan nan nan nan nan nan nan nan nan nan nan nan nan nan nan nan nan nan nan nan nan nan nan nan nan nan 0 0 1 3 3 3 4 3 3 3 4 4 4 4 5 8 8 10
nan nan nan nan nan nan nan nan nan nan nan nan nan nan nan nan nan nan nan nan nan nan nan nan nan nan nan nan nan nan nan nan nan nan nan nan nan nan nan nan nan nan nan nan nan nan nan nan nan nan nan nan nan nan nan nan nan nan nan nan nan nan nan nan nan nan nan nan nan nan nan 1 1 1 2 2 3 3 4 4 4 5 6 9 9 12
nan nan nan nan nan nan nan nan nan nan nan nan nan nan nan nan nan nan nan nan nan nan nan nan nan nan nan nan nan nan nan nan nan nan nan nan nan nan nan nan nan nan nan nan nan nan nan nan nan nan nan nan nan nan nan nan nan nan nan nan nan nan nan nan nan nan nan nan nan nan nan 0 1 1 1 2 3 3 4 5 5 6 7 10 10 14
nan nan nan nan nan nan nan nan nan nan nan nan nan nan nan nan nan nan nan nan nan nan nan nan nan nan nan nan nan nan nan nan nan nan nan nan nan nan nan nan nan nan nan nan nan nan nan nan nan nan nan nan nan nan nan nan nan nan nan nan nan 0 0 1 1 1 1 1 0 0 1 2 2 2 2 3 4 4 5 7 7 7 9 11 11 14
nan nan nan nan nan nan nan nan nan nan nan nan nan nan nan nan nan nan nan nan nan nan nan nan nan nan nan nan nan nan nan nan nan nan nan nan nan nan nan nan nan nan nan nan nan nan nan nan nan nan nan nan nan nan nan nan nan nan nan nan nan nan 0 1 1 2 3 4 3 3 4 3 3 3 3 4 5 5 6 8 8 10 12 13 13 14
nan nan nan nan nan nan nan nan nan nan nan nan nan nan nan nan nan nan nan nan nan nan nan nan nan nan nan nan nan nan nan nan nan nan nan nan nan nan nan nan nan nan nan nan nan nan nan nan nan nan nan nan nan nan nan nan nan nan nan nan nan nan nan 0 0 1 2 3 3 3 4 4 4 4 4 5 5 5 7 9 9 11 14 13 13 15
nan nan nan nan nan nan nan nan nan nan nan nan nan nan nan nan nan nan nan nan nan nan nan nan nan nan nan nan nan nan nan nan nan nan nan nan nan nan nan nan nan nan nan nan nan nan nan nan nan nan nan nan nan nan nan nan nan nan nan nan nan 0 0 0 0 0 1 2 3 3 4 6 5 5 6 6 6 6 8 10 10 11 13 13 13 15
nan nan nan nan nan nan nan nan nan nan nan nan nan nan nan nan nan nan nan nan nan nan nan nan nan nan nan nan nan nan nan nan nan nan nan nan nan nan nan nan nan nan nan nan nan nan nan nan nan nan nan nan nan nan nan nan nan nan 0 0 0 0 0 0 0 0 0 1 3 3 4 5 6 6 6 6 7 7 8 9 9 11 12 13 13 14
nan nan nan nan nan nan nan nan nan nan nan nan nan nan nan nan nan nan nan nan nan nan nan nan nan nan nan nan nan nan nan nan nan nan nan nan nan nan nan nan nan nan nan nan nan nan nan nan nan nan nan nan nan nan nan 0 0 0 0 1 1 1 1 1 1 0 0 1 2 2 3 5 6 6 6 6 6 6 7 8 8 10 11 13 13 14
nan nan nan nan nan nan nan nan nan nan nan nan nan nan nan nan nan nan nan nan nan nan nan nan nan nan nan nan nan nan nan nan nan nan nan nan nan nan nan nan nan nan nan nan nan nan nan nan nan nan nan nan nan nan nan 0 0 0 0 1 1 1 1 1 1 1 1 1 2 2 3 3 5 5 7 7 7 7 7 7 7 9 11 13 13 14
nan nan nan nan nan nan nan nan nan nan nan nan nan nan nan nan nan nan nan nan nan nan nan nan nan nan nan nan nan nan nan nan nan nan nan nan nan nan nan nan nan nan nan nan nan nan nan nan nan nan nan nan nan nan nan nan nan nan 0 1 1 1 2 1 1 1 1 1 1 1 2 3 4 4 5 7 7 7 7 8 8 10 12 13 13 13
nan nan nan nan nan nan nan nan nan nan nan nan nan nan nan nan nan nan nan nan nan nan nan nan nan nan nan nan nan nan nan nan nan nan nan nan nan nan nan nan nan nan nan nan nan nan nan nan nan nan nan nan nan nan nan nan nan nan 0 3 3 4 3 2 2 1 1 1 2 2 3 3 3 3 4 6 6 6 7 8 8 11 11 12 12 12
nan nan nan nan nan nan nan nan nan nan nan nan nan nan nan nan nan nan nan nan nan nan nan nan nan nan nan nan nan nan nan nan nan nan nan nan nan nan nan nan nan nan nan nan nan nan nan nan nan nan nan nan nan nan nan nan nan nan 1 3 3 5 4 5 5 4 4 4 3 3 3 3 4 4 4 5 6 6 6 8 8 10 10 9 9 9
nan nan nan nan nan nan nan nan nan nan nan nan nan nan nan nan nan nan nan nan nan nan nan nan nan nan nan nan nan nan nan nan nan nan nan nan nan nan nan nan nan nan nan nan nan nan nan nan nan nan nan nan nan nan nan nan nan nan 1 3 3 4 4 4 4 5 6 5 4 4 4 4 4 4 5 6 5 5 6 6 6 7 7 7 7 7
nan nan nan nan nan nan nan nan nan nan nan nan nan nan nan nan nan nan nan nan nan nan nan nan nan nan nan nan nan nan nan nan nan nan nan nan nan nan nan nan nan nan nan nan nan nan nan nan nan nan nan nan nan nan nan nan nan nan 0 1 1 2 2 2 2 2 4 5 6 6 6 7 7 7 7 6 6 6 6 6 6 6 6 6 6 6
nan nan nan nan nan nan nan nan nan nan nan nan nan nan nan nan nan nan nan nan nan nan nan nan nan nan nan nan nan nan nan nan nan nan nan nan nan nan nan nan nan nan nan nan nan nan nan nan nan nan nan nan nan nan nan nan nan nan nan nan nan 0 0 0 0 1 1 3 4 4 6 7 8 8 8 7 7 7 7 8 8 7 7 7 7 7
nan nan nan nan nan nan nan nan nan nan nan nan nan nan nan nan nan nan nan nan nan nan nan nan nan nan nan nan nan nan nan nan nan nan nan nan nan nan nan nan nan nan nan nan nan nan nan nan nan nan nan nan nan nan nan nan nan nan nan nan nan 0 0 0 0 0 0 1 2 2 4 6 6 6 7 8 8 8 8 8 8 8 7 8 8 8
nan nan nan nan nan nan nan nan nan nan nan nan nan nan nan nan nan nan nan nan nan nan nan nan nan nan nan nan nan nan nan nan nan nan nan nan nan nan nan nan nan nan nan nan nan nan nan nan nan nan nan nan nan nan nan nan nan nan 0 0 0 1 1 1 1 1 0 1 1 1 2 3 5 5 7 8 8 8 8 9 9 9 8 9 9 8
nan nan nan nan nan nan nan nan nan nan nan nan 0 0 nan nan nan nan nan nan nan nan nan nan nan nan nan nan nan nan nan nan nan nan nan nan nan nan nan nan nan nan nan nan nan nan nan nan nan nan nan nan nan nan nan nan nan nan nan 0 0 0 0 1 1 1 0 0 1 1 2 3 4 4 5 6 9 9 9 10 10 10 8 1 1 nan
nan nan nan nan nan nan nan nan nan nan nan 0 2 2 nan nan nan nan nan nan nan nan nan nan nan nan nan nan nan nan nan nan nan nan nan nan nan nan nan nan nan nan nan nan nan nan nan nan nan nan nan nan nan nan nan nan nan nan 0 nan nan nan nan 0 0 1 1 1 1 1 1 2 3 3 4 5 6 6 8 9 9 9 5 nan nan nan
nan nan nan nan nan nan nan nan nan nan nan 0 1 1 nan nan nan nan nan nan nan nan nan nan nan nan nan nan nan nan nan nan nan nan nan nan nan nan nan nan nan nan nan nan nan nan nan nan nan nan nan nan nan nan nan nan nan nan nan nan nan nan nan nan nan 0 1 1 2 2 2 2 3 3 3 4 5 5 5 6 6 6 nan nan nan nan
nan nan nan nan nan nan nan nan nan nan nan nan nan nan nan nan nan nan nan nan nan nan nan nan nan nan nan nan nan nan nan nan nan nan nan nan nan nan nan nan nan nan nan nan nan nan nan nan nan nan nan nan nan nan nan nan nan nan nan nan nan nan nan nan nan nan 0 1 2 2 3 3 4 4 4 4 4 4 5 6 6 1 nan nan nan nan
nan nan nan nan nan nan nan nan nan nan nan nan nan nan nan nan nan nan nan nan nan nan nan nan nan nan nan nan nan nan nan nan nan nan nan nan nan nan nan nan nan nan nan nan nan nan nan nan nan nan nan nan nan nan nan nan nan nan nan nan nan nan nan nan nan nan nan 1 1 1 3 3 3 3 4 4 6 6 7 6 6 6 nan nan nan nan
nan nan nan nan nan nan nan nan nan nan nan nan nan nan nan nan nan nan nan nan nan nan nan nan nan nan nan nan nan nan nan nan nan nan nan nan nan nan nan nan nan nan nan nan nan nan nan nan nan nan nan nan nan nan nan nan nan nan nan nan nan nan nan nan nan nan nan nan nan nan 3 1 2 2 3 3 4 4 5 6 6 8 0 nan nan nan
nan nan nan nan nan nan nan nan nan nan nan nan nan nan nan nan nan nan nan nan nan nan nan nan nan nan nan nan nan nan nan nan nan nan nan nan nan nan nan nan nan nan nan nan nan nan nan nan nan nan nan nan nan nan nan nan nan nan nan nan nan nan nan nan nan nan nan nan nan nan nan nan nan nan 1 2 2 2 3 6 6 6 7 nan nan nan
nan nan nan nan nan nan nan nan nan nan nan nan nan nan nan nan nan nan nan nan nan nan nan nan nan nan nan nan nan nan nan nan nan nan nan nan nan nan nan nan nan nan nan nan nan nan nan nan nan nan nan nan nan nan nan nan nan nan nan nan nan nan nan nan nan nan nan nan nan nan nan nan nan nan nan 0 2 2 4 7 7 7 7 11 11 nan
nan nan nan nan nan nan nan nan nan nan nan nan nan nan nan nan nan nan nan nan nan nan nan nan nan nan nan nan nan nan nan nan nan nan nan nan nan nan nan nan nan nan nan nan nan nan nan nan nan nan nan nan nan nan nan nan nan nan nan nan nan nan nan nan nan nan nan nan nan nan nan nan nan nan nan 2 6 6 6 7 7 7 8 8 8 7
nan nan nan nan nan nan nan nan nan nan nan nan nan nan nan nan nan nan nan nan nan nan nan nan nan nan nan nan nan nan nan nan nan nan nan nan nan nan nan nan nan nan nan nan nan nan nan nan nan nan nan nan nan nan nan nan nan nan nan nan nan nan nan nan nan nan nan nan nan nan nan nan nan nan nan 3 1 1 3 7 7 5 5 6 6 6
nan nan nan nan nan nan nan nan nan nan nan nan nan nan nan nan nan nan nan nan nan nan nan nan nan nan nan nan nan nan nan nan nan nan nan nan nan nan nan nan nan nan nan nan nan nan nan nan nan nan nan nan nan nan nan nan nan nan nan nan nan nan nan nan nan nan nan nan nan nan nan nan nan nan nan nan nan nan nan nan nan nan 3 1 1 4
nan nan nan nan nan nan nan nan nan nan nan nan nan nan nan nan nan nan nan nan nan nan nan nan nan nan nan nan nan nan nan nan nan nan nan nan nan nan nan nan nan nan nan nan nan nan nan nan nan nan nan nan nan nan nan nan nan nan nan nan nan nan nan nan nan nan nan nan nan nan nan nan nan nan nan nan nan nan nan nan nan nan nan nan nan nan
nan nan nan nan nan nan nan nan nan nan nan nan nan nan nan nan nan nan nan nan nan nan nan nan nan nan nan nan nan nan nan nan nan nan nan nan nan nan nan nan nan nan nan nan nan nan nan nan nan nan 0 nan nan nan nan nan nan nan nan nan nan nan nan nan nan nan nan nan nan nan nan nan nan nan nan nan nan nan nan nan nan nan nan nan nan nan
nan nan nan nan nan nan nan nan nan nan nan nan nan nan nan nan nan nan nan nan nan nan nan nan nan nan nan nan nan nan nan nan nan nan nan nan nan nan nan nan nan nan nan nan nan nan nan nan nan 0 0 0 0 0 nan nan nan nan 2 nan nan nan nan nan nan nan nan nan nan nan nan nan nan nan nan nan nan nan nan nan nan nan nan nan nan nan
nan nan nan nan nan nan nan nan nan nan nan nan nan nan nan nan nan nan nan nan nan nan nan nan nan nan nan nan nan nan nan nan nan nan nan nan nan nan nan nan nan nan nan nan nan nan nan 1 1 0 0 nan nan nan nan nan nan nan 0 nan nan nan nan nan nan nan nan nan nan nan nan nan nan nan nan nan nan nan nan nan nan nan nan nan nan nan
nan nan nan nan nan nan nan nan nan nan nan nan nan nan nan nan nan nan nan nan nan nan nan nan nan nan nan nan nan nan nan nan nan nan nan nan nan nan nan nan nan nan nan nan nan nan nan 2 2 0 nan nan nan nan nan nan nan nan nan nan nan nan nan nan nan nan nan nan nan nan nan nan nan nan nan nan nan nan nan nan nan 0 nan nan nan nan
nan nan nan nan nan nan nan nan nan nan nan nan nan nan nan nan nan nan nan nan nan nan nan nan nan nan nan nan nan nan nan nan nan nan nan nan nan nan nan nan nan nan nan nan nan 0 nan 0 0 nan nan 0 nan nan nan nan nan nan nan nan nan nan nan nan nan nan nan nan nan nan nan nan nan nan nan nan nan nan nan nan nan nan nan nan nan nan
nan nan nan nan nan nan nan nan nan nan nan nan nan nan nan nan nan nan nan nan nan nan nan nan nan nan nan nan nan nan nan nan nan nan nan nan nan nan nan nan nan nan nan nan nan nan nan nan nan nan nan nan nan nan nan nan nan nan nan nan nan nan nan nan nan nan nan nan nan nan nan nan nan nan nan nan nan nan nan nan nan nan nan nan nan nan
nan nan nan nan nan nan nan nan nan nan nan nan nan nan nan nan nan nan nan nan nan nan nan nan nan nan nan nan nan nan nan nan nan nan nan nan nan nan nan nan nan nan nan nan nan nan nan nan nan nan nan nan 0 0 nan nan nan nan nan nan nan nan nan nan nan nan nan nan nan nan nan nan nan nan nan nan nan nan nan nan nan nan nan nan nan nan
nan nan nan nan nan nan nan nan nan nan nan nan nan nan nan nan nan nan nan nan nan nan nan nan nan nan nan nan nan nan nan nan nan nan nan nan nan nan nan nan nan nan nan nan nan nan nan nan nan nan nan nan nan nan nan nan nan nan nan nan nan nan nan nan nan nan nan nan nan nan nan nan nan nan nan nan nan nan nan nan nan nan nan nan nan nan
nan nan nan nan nan nan nan nan nan nan nan nan nan nan nan nan nan nan nan nan nan nan nan nan nan nan nan nan nan nan nan nan nan nan nan nan nan nan nan nan nan nan nan nan nan nan nan nan nan nan nan nan nan nan nan nan nan nan nan nan nan nan nan nan nan nan nan nan nan nan nan nan nan nan nan nan nan nan nan nan nan nan nan nan nan nan
nan nan nan nan nan nan nan nan nan nan nan nan nan nan nan nan nan nan nan nan nan nan nan nan nan nan nan nan nan nan nan nan nan nan nan nan nan nan nan nan nan nan nan 0 0 0 1 1 1 0 nan nan nan nan nan nan nan nan nan nan nan nan nan nan nan nan nan nan nan nan nan nan nan nan nan nan nan nan nan nan nan nan nan nan nan nan
nan nan nan nan nan nan nan nan nan nan nan nan nan nan nan nan nan nan nan nan nan nan nan nan nan nan nan nan nan nan nan nan nan nan nan nan nan nan nan nan nan nan nan nan nan nan nan nan nan nan 0 nan nan nan nan nan nan nan nan nan nan nan nan nan nan nan nan nan nan nan nan nan nan nan nan nan nan nan 0 nan nan nan nan nan nan nan
nan nan nan nan nan nan nan nan nan nan nan nan nan nan nan nan nan nan nan nan nan nan nan nan nan nan nan nan nan nan nan nan nan nan nan nan nan nan nan nan nan nan nan nan nan nan nan nan nan nan nan 1 nan nan nan nan nan nan nan nan nan nan nan nan nan nan nan nan nan nan nan nan nan nan nan 0 2 2 1 1 1 nan nan nan nan nan
CIN
nan nan nan nan nan nan nan nan nan nan nan nan nan nan nan nan nan nan nan nan nan nan nan nan nan nan nan -0 -0 -0 -0 -0 -0 -0 -0 -0 -0 -0 -0 -0 -0 nan nan nan nan nan nan nan nan nan nan nan nan nan nan nan nan -0 -0 -0 -0 -0 -0 -0 -0 -0 -0 -0 -0 -0 -0 -0 -0 -0 -0 -0 -0 -0 -0 -0 -0 -0 -0 -0 -0 -0
nan nan nan nan nan nan nan nan nan nan nan nan nan nan nan nan nan nan nan nan nan nan nan nan nan nan nan nan -0 -0 -0 -0 -0 -0 -0 -0 -0 -0 -0 nan nan nan nan nan nan nan nan nan nan nan nan nan nan nan nan nan nan nan nan -0 -0 -0 -0 -0 -0 -0 -0 -0 -0 -0 -0 -0 -0 -0 -0 -0 -0 -0 -0 -0 -0 -0 -0 -0 -0 -0
nan nan nan nan nan nan nan nan nan nan nan nan nan nan nan nan nan nan nan nan nan nan nan nan nan nan nan nan nan nan -0 -0 -0 -0 -0 -0 -0 -0 nan nan nan nan nan nan nan nan nan nan nan nan nan nan nan nan nan nan nan nan nan nan nan nan -0 -0 -0 -0 -0 -0 -0 -0 -0 -0 -1 -1 -0 -0 -0 -0 -0 -0 -0 -0 -0 -0 -0 -0
nan nan nan nan nan nan nan nan nan nan nan nan nan nan nan nan nan nan nan nan nan nan nan nan nan nan nan nan nan nan nan nan nan nan nan nan nan nan nan nan nan nan nan nan nan nan nan nan nan nan nan nan nan nan nan nan nan nan nan nan nan nan nan -0 -0 -0 -0 -0 -0 -0 -0 nan nan nan -0 -0 -0 -0 -0 -0 -0 -0 -0 -0 -0 -0
nan nan nan nan nan nan nan nan nan nan nan nan nan nan nan nan nan nan nan nan nan nan nan nan nan nan nan nan nan nan nan nan nan nan nan nan nan nan nan nan nan nan nan nan nan nan nan nan nan nan nan nan nan nan nan nan nan nan nan nan nan nan nan nan nan nan -0 -0 -0 -0 -0 -0 -0 -0 -0 -0 -0 -0 -0 -0 -0 -0 -0 -0 -0 -0
nan nan nan nan nan nan nan nan nan nan nan nan nan nan nan nan nan nan nan nan nan nan nan nan nan nan nan nan nan nan nan nan nan nan nan nan nan nan nan nan nan nan nan nan nan nan nan nan nan nan nan nan nan nan nan nan nan nan nan nan nan nan nan nan nan nan nan -0 -0 -0 -0 -0 -0 -0 -0 -0 -0 -0 -0 -0 -0 -0 -0 -0 -0 -0
nan nan nan nan nan nan nan nan nan nan nan nan nan nan nan nan nan nan nan nan nan nan nan nan nan nan nan nan nan nan nan nan nan nan nan nan nan nan nan nan nan nan nan nan nan nan nan nan nan nan nan nan nan nan nan nan nan nan nan nan nan nan nan nan nan nan nan -0 -0 -0 -0 -0 -0 -0 -0 -0 -0 -0 -0 -0 -0 -0 -0 -0 -0 -0
nan nan nan nan nan nan nan nan nan nan nan nan nan nan nan nan nan nan nan nan nan nan nan nan nan nan nan nan nan nan nan nan nan nan nan nan nan nan nan nan nan nan nan nan nan nan nan nan nan nan nan nan nan nan nan nan nan nan nan nan nan nan nan nan nan nan nan -0 -0 -0 -0 -0 -0 -0 -0 -0 -0 -0 -0 -0 -0 -0 -0 -0 -0 -0
nan nan nan nan nan nan nan nan nan nan nan nan nan nan nan nan nan nan nan nan nan nan nan nan nan nan nan nan nan nan nan nan nan nan nan nan nan nan nan nan nan nan nan nan nan nan nan nan nan nan nan nan nan nan nan nan nan nan nan nan nan nan nan nan nan nan nan -0 -0 -0 -0 -0 -0 -0 -0 -0 -0 -0 -0 -0 -0 -0 -0 -0 -0 -0
nan nan nan nan nan nan nan nan nan nan nan nan nan nan nan nan nan nan nan nan nan nan nan nan nan nan nan nan nan nan nan nan nan nan nan nan nan nan nan nan nan nan nan nan nan nan nan nan nan nan nan nan nan nan nan nan nan nan nan nan nan nan nan nan nan nan nan nan -0 -0 -0 -0 -0 -0 -0 -0 -0 -0 -0 -0 -0 -0 -0 -0 -0 -0
nan nan nan nan nan nan nan nan nan nan nan nan nan nan nan nan nan nan nan nan nan nan nan nan nan nan nan nan nan nan nan nan nan nan nan nan nan nan nan nan nan nan nan nan nan nan nan nan nan nan nan nan nan nan nan nan nan nan nan nan nan nan nan nan nan nan nan nan nan nan nan -0 -0 -0 -0 -0 -0 -0 -0 -0 -0 -0 -0 -0 -0 -0
nan nan nan nan nan nan nan nan nan nan nan nan nan nan nan nan nan nan nan nan nan nan nan nan nan nan nan nan nan nan nan nan nan nan nan nan nan nan nan nan nan nan nan nan nan nan nan nan nan nan nan nan nan nan nan nan nan nan nan nan nan nan nan nan nan nan nan nan nan nan nan -0 -0 -0 -0 -0 -0 -0 -0 -0 -0 -0 -0 -0 -0 -0
nan nan nan nan nan nan nan nan nan nan nan nan nan nan nan nan nan nan nan nan nan nan nan nan nan nan nan nan nan nan nan nan nan nan nan nan nan nan nan nan nan nan nan nan nan nan nan nan nan nan nan nan nan nan nan nan nan nan nan nan nan -0 -0 -0 -0 -0 -0 -0 -0 -0 -0 -0 -0 -0 -0 -0 -0 -0 -0 -0 -0 -0 -0 -0 -0 -0
nan nan nan nan nan nan nan nan nan nan nan nan nan nan nan nan nan nan nan nan nan nan nan nan nan nan nan nan nan nan nan nan nan nan nan nan nan nan nan nan nan nan nan nan nan nan nan nan nan nan nan nan nan nan nan nan nan nan nan nan nan nan -0 -0 -0 -0 -0 -0 -0 -0 -0 -0 -0 -0 -0 -0 -0 -0 -0 -0 -0 -0 -0 -0 -0 -0
nan nan nan nan nan nan nan nan nan nan nan nan nan nan nan nan nan nan nan nan nan nan nan nan nan nan nan nan nan nan nan nan nan nan nan nan nan nan nan nan nan nan nan nan nan nan nan nan nan nan nan nan nan nan nan nan nan nan nan nan nan nan nan -0 -0 -0 -0 -0 -0 -0 -0 -0 -0 -0 -0 -0 -0 -0 -0 -0 -0 -0 -0 -0 -0 -0
nan nan nan nan nan nan nan nan nan nan nan nan nan nan nan nan nan nan nan nan nan nan nan nan nan nan nan nan nan nan nan nan nan nan nan nan nan nan nan nan nan nan nan nan nan nan nan nan nan nan nan nan nan nan nan nan nan nan nan nan nan -0 -0 -0 -0 -0 -0 -0 -0 -0 -0 -0 -0 -0 -0 -0 -0 -0 -0 -0 -0 -0 -0 -0 -0 -0
nan nan nan nan nan nan nan nan nan nan nan nan nan nan nan nan nan nan nan nan nan nan nan nan nan nan nan nan nan nan nan nan nan nan nan nan nan nan nan nan nan nan nan nan nan nan nan nan nan nan nan nan nan nan nan nan nan nan -0 -0 -0 -0 -0 -0 -0 -0 -0 -0 -0 -0 -0 -0 -0 -0 -0 -0 -0 -0 -0 -0 -0 -0 -0 -0 -0 -0
nan nan nan nan nan nan nan nan nan nan nan nan nan nan nan nan nan nan nan nan nan nan nan nan nan nan nan nan nan nan nan nan nan nan nan nan nan nan nan nan nan nan nan nan nan nan nan nan nan nan nan nan nan nan nan -0 -0 -0 -0 -0 -0 -0 -0 -0 -0 -0 -0 -0 -0 -0 -0 -0 -0 -0 -0 -0 -0 -0 -0 -0 -0 -0 -0 -0 -0 -0
nan nan nan nan nan nan nan nan nan nan nan nan nan nan nan nan nan nan nan nan nan nan nan nan nan nan nan nan nan nan nan nan nan nan nan nan nan nan nan nan nan nan nan nan nan nan nan nan nan nan nan nan nan nan nan -0 -0 -0 -0 -0 -0 -0 -0 -0 -0 -0 -0 -0 -0 -0 -0 -0 -0 -0 -0 -0 -0 -0 -0 -0 -0 -0 -0 -0 -0 -0
nan nan nan nan nan nan nan nan nan nan nan nan nan nan nan nan nan nan nan nan nan nan nan nan nan nan nan nan nan nan nan nan nan nan nan nan nan nan nan nan nan nan nan nan nan nan nan nan nan nan nan nan nan nan nan nan nan nan -0 -0 -0 -0 -0 -0 -0 -0 -0 -0 -0 -0 -0 -0 -0 -0 -0 -0 -0 -0 -0 -0 -0 -0 -0 -0 -0 -0
nan nan nan nan nan nan nan nan nan nan nan nan nan nan nan nan nan nan nan nan nan nan nan nan nan nan nan nan nan nan nan nan nan nan nan nan nan nan nan nan nan nan nan nan nan nan nan nan nan nan nan nan nan nan nan nan nan nan -0 -0 -0 -0 -0 -0 -0 -0 -0 -0 -0 -0 -0 -0 -0 -0 -0 -0 -0 -0 -0 -0 -0 -0 -0 -0 -0 -0
nan nan nan nan nan nan nan nan nan nan nan nan nan nan nan nan nan nan nan nan nan nan nan nan nan nan nan nan nan nan nan nan nan nan nan nan nan nan nan nan nan nan nan nan nan nan nan nan nan nan nan nan nan nan nan nan nan nan -0 -0 -0 -0 -0 -0 -0 -0 -0 -0 -0 -0 -0 -0 -0 -0 -0 -0 -0 -0 -0 -0 -0 -0 -0 -0 -0 -0
nan nan nan nan nan nan nan nan nan nan nan nan nan nan nan nan nan nan nan nan nan nan nan nan nan nan nan nan nan nan nan nan nan nan nan nan nan nan nan nan nan nan nan nan nan nan nan nan nan nan nan nan nan nan nan nan nan nan -0 -0 -0 -0 -0 -0 -0 -0 -0 -0 -0 -0 -0 -0 -0 -0 -0 -0 -0 -0 -0 -0 -0 -0 -0 -0 -0 -0
nan nan nan nan nan nan nan nan nan nan nan nan nan nan nan nan nan nan nan nan nan nan nan nan nan nan nan nan nan nan nan nan nan nan nan nan nan nan nan nan nan nan nan nan nan nan nan nan nan nan nan nan nan nan nan nan nan nan -0 -0 -0 -0 -0 -0 -0 -0 -0 -0 -0 -0 -0 -0 -0 -0 -0 -0 -0 -0 -0 -0 -0 -0 -0 -0 -0 -0
nan nan nan nan nan nan nan nan nan nan nan nan nan nan nan nan nan nan nan nan nan nan nan nan nan nan nan nan nan nan nan nan nan nan nan nan nan nan nan nan nan nan nan nan nan nan nan nan nan nan nan nan nan nan nan nan nan nan nan nan nan -0 -0 -0 -0 -0 -0 -0 -0 -0 -0 -0 -0 -0 -0 -0 -0 -0 -0 -0 -0 -0 -0 -0 -0 -0
nan nan nan nan nan nan nan nan nan nan nan nan nan nan nan nan nan nan nan nan nan nan nan nan nan nan nan nan nan nan nan nan nan nan nan nan nan nan nan nan nan nan nan nan nan nan nan nan nan nan nan nan nan nan nan nan nan nan nan nan nan -0 -0 -0 -0 -0 -0 -0 -0 -0 -0 -0 -0 -0 -0 -0 -0 -0 -0 -0 -0 -0 -0 -0 -0 -0
nan nan nan nan nan nan nan nan nan nan nan nan nan nan nan nan nan nan nan nan nan nan nan nan nan nan nan nan nan nan nan nan nan nan nan nan nan nan nan nan nan nan nan nan nan nan nan nan nan nan nan nan nan nan nan nan nan nan -0 -0 -0 -0 -0 -0 -0 -0 -0 -0 -0 -0 -0 -0 -0 -0 -0 -0 -0 -0 -0 -0 -0 -0 -0 -0 -0 -0
nan nan nan nan nan nan nan nan nan nan nan nan -0 -0 nan nan nan nan nan nan nan nan nan nan nan nan nan nan nan nan nan nan nan nan nan nan nan nan nan nan nan nan nan nan nan nan nan nan nan nan nan nan nan nan nan nan nan nan nan -0 -0 -0 -0 -0 -0 -0 -0 -0 -0 -0 -0 -0 -0 -0 -0 -0 -0 -0 -0 -0 -0 -0 -0 -16 -16 nan
nan nan nan nan nan nan nan nan nan nan nan -0 -0 -0 nan nan nan nan nan nan nan nan nan nan nan nan nan nan nan nan nan nan nan nan nan nan nan nan nan nan nan nan nan nan nan nan nan nan nan nan nan nan nan nan nan nan nan nan -0 nan nan nan nan -0 -0 -0 -0 -0 -0 -0 -0 -0 -0 -0 -0 -0 -0 -0 -0 -0 -0 -0 -1 nan nan nan
nan nan nan nan nan nan nan nan nan nan nan -0 -0 -0 nan nan nan nan nan nan nan nan nan nan nan nan nan nan nan nan nan nan nan nan nan nan nan nan nan nan nan nan nan nan nan nan nan nan nan nan nan nan nan nan nan nan nan nan nan nan nan nan nan nan nan -0 -0 -0 -0 -0 -0 -0 -0 -0 -0 -0 -0 -0 -0 -0 -0 -0 nan nan nan nan
nan nan nan nan nan nan nan nan nan nan nan nan nan nan nan nan nan nan nan nan nan nan nan nan nan nan nan nan nan nan nan nan nan nan nan nan nan nan nan nan nan nan nan nan nan nan nan nan nan nan nan nan nan nan nan nan nan nan nan nan nan nan nan nan nan nan -0 -0 -0 -0 -0 -0 -0 -0 -0 -0 -0 -0 -0 -0 -0 -8 nan nan nan nan
nan nan nan nan nan nan nan nan nan nan nan nan nan nan nan nan nan nan nan nan nan nan nan nan nan nan nan nan nan nan nan nan nan nan nan nan nan nan nan nan nan nan nan nan nan nan nan nan nan nan nan nan nan nan nan nan nan nan nan nan nan nan nan nan nan nan nan -0 -0 -0 -0 -0 -0 -0 -0 -0 -0 -0 -0 -0 -0 -0 nan nan nan nan
nan nan nan nan nan nan nan nan nan nan nan nan nan nan nan nan nan nan nan nan nan nan nan nan nan nan nan nan nan nan nan nan nan nan nan nan nan nan nan nan nan nan nan nan nan nan nan nan nan nan nan nan nan nan nan nan nan nan nan nan nan nan nan nan nan nan nan nan nan nan -0 -0 -0 -0 -0 -0 -0 -0 -0 -0 -0 -0 -14 nan nan nan
nan nan nan nan nan nan nan nan nan nan nan nan nan nan nan nan nan nan nan nan nan nan nan nan nan nan nan nan nan nan nan nan nan nan nan nan nan nan nan nan nan nan nan nan nan nan nan nan nan nan nan nan nan nan nan nan nan nan nan nan nan nan nan nan nan nan nan nan nan nan nan nan nan nan -3 -0 -0 -0 -0 -0 -0 -0 -0 nan nan nan
nan nan nan nan nan nan nan nan nan nan nan nan nan nan nan nan nan nan nan nan nan nan nan nan nan nan nan nan nan nan nan nan nan nan nan nan nan nan nan nan nan nan nan nan nan nan nan nan nan nan nan nan nan nan nan nan nan nan nan nan nan nan nan nan nan nan nan nan nan nan nan nan nan nan nan -13 -0 -0 -0 -0 -0 -0 -0 -0 -0 nan
nan nan nan nan nan nan nan nan nan nan nan nan nan nan nan nan nan nan nan nan nan nan nan nan nan nan nan nan nan nan nan nan nan nan nan nan nan nan nan nan nan nan nan nan nan nan nan nan nan nan nan nan nan nan nan nan nan nan nan nan nan nan nan nan nan nan nan nan nan nan nan nan nan nan nan -5 -0 -0 -0 -0 -0 -0 -0 -0 -0 -0
nan nan nan nan nan nan nan nan nan nan nan nan nan nan nan nan nan nan nan nan nan nan nan nan nan nan nan nan nan nan nan nan nan nan nan nan nan nan nan nan nan nan nan nan nan nan nan nan nan nan nan nan nan nan nan nan nan nan nan nan nan nan nan nan nan nan nan nan nan nan nan nan nan nan nan -4 -13 -13 -3 -0 -0 -0 -0 -0 -0 -0
nan nan nan nan nan nan nan nan nan nan nan nan nan nan nan nan nan nan nan nan nan nan nan nan nan nan nan nan nan nan nan nan nan nan nan nan nan nan nan nan nan nan nan nan nan nan nan nan nan nan nan nan nan nan nan nan nan nan nan nan nan nan nan nan nan nan nan nan nan nan nan nan nan nan nan nan nan nan nan nan nan nan -0 -4 -4 -0
nan nan nan nan nan nan nan nan nan nan nan nan nan nan nan nan nan nan nan nan nan nan nan nan nan nan nan nan nan nan nan nan nan nan nan nan nan nan nan nan nan nan nan nan nan nan nan nan nan nan nan nan nan nan nan nan nan nan nan nan nan nan nan nan nan nan nan nan nan nan nan nan nan nan nan nan nan nan nan nan nan nan nan nan nan nan
nan nan nan nan nan nan nan nan nan nan nan nan nan nan nan nan nan nan nan nan nan nan nan nan nan nan nan nan nan nan nan nan nan nan nan nan nan nan nan nan nan nan nan nan nan nan nan nan nan nan -1 nan nan nan nan nan nan nan nan nan nan nan nan nan nan nan nan nan nan nan nan nan nan nan nan nan nan nan nan nan nan nan nan nan nan nan
nan nan nan nan nan nan nan nan nan nan nan nan nan nan nan nan nan nan nan nan nan nan nan nan nan nan nan nan nan nan nan nan nan nan nan nan nan nan nan nan nan nan nan nan nan nan nan nan nan -4 -5 -5 -2 -2 nan nan nan nan -0 nan nan nan nan nan nan nan nan nan nan nan nan nan nan nan nan nan nan nan nan nan nan nan nan nan nan nan
nan nan nan nan nan nan nan nan nan nan nan nan nan nan nan nan nan nan nan nan nan nan nan nan nan nan nan nan nan nan nan nan nan nan nan nan nan nan nan nan nan nan nan nan nan nan nan -4 -4 -4 -6 nan nan nan nan nan nan nan -3 nan nan nan nan nan nan nan nan nan nan nan nan nan nan nan nan nan nan nan nan nan nan nan nan nan nan nan
nan nan nan nan nan nan nan nan nan nan nan nan nan nan nan nan nan nan nan nan nan nan nan nan nan nan nan nan nan nan nan nan nan nan nan nan nan nan nan nan nan nan nan nan nan nan nan -2 -2 -6 nan nan nan nan nan nan nan nan nan nan nan nan nan nan nan nan nan nan nan nan nan nan nan nan nan nan nan nan nan nan nan -13 nan nan nan nan
nan nan nan nan nan nan nan nan nan nan nan nan nan nan nan nan nan nan nan nan nan nan nan nan nan nan nan nan nan nan nan nan nan nan nan nan nan nan nan nan nan nan nan nan nan -3 nan -5 -5 nan nan -13 nan nan nan nan nan nan nan nan nan nan nan nan nan nan nan nan nan nan nan nan nan nan nan nan nan nan nan nan nan nan nan nan nan nan
nan nan nan nan nan nan nan nan nan nan nan nan nan nan nan nan nan nan nan nan nan nan nan nan nan nan nan nan nan nan nan nan nan nan nan nan nan nan nan nan nan nan nan nan nan nan nan nan nan nan nan nan nan nan nan nan nan nan nan nan nan nan nan nan nan nan nan nan nan nan nan nan nan nan nan nan nan nan nan nan nan nan nan nan nan nan
nan nan nan nan nan nan nan nan nan nan nan nan nan nan nan nan nan nan nan nan nan nan nan nan nan nan nan nan nan nan nan nan nan nan nan nan nan nan nan nan nan nan nan nan nan nan nan nan nan nan nan nan -8 -8 nan nan nan nan nan nan nan nan nan nan nan nan nan nan nan nan nan nan nan nan nan nan nan nan nan nan nan nan nan nan nan nan
nan nan nan nan nan nan nan nan nan nan nan nan nan nan nan nan nan nan nan nan nan nan nan nan nan nan nan nan nan nan nan nan nan nan nan nan nan nan nan nan nan nan nan nan nan nan nan nan nan nan nan nan nan nan nan nan nan nan nan nan nan nan nan nan nan nan nan nan nan nan nan nan nan nan nan nan nan nan nan nan nan nan nan nan nan nan
nan nan nan nan nan nan nan nan nan nan nan nan nan nan nan nan nan nan nan nan nan nan nan nan nan nan nan nan nan nan nan nan nan nan nan nan nan nan nan nan nan nan nan nan nan nan nan nan nan nan nan nan nan nan nan nan nan nan nan nan nan nan nan nan nan nan nan nan nan nan nan nan nan nan nan nan nan nan nan nan nan nan nan nan nan nan
nan nan nan nan nan nan nan nan nan nan nan nan nan nan nan nan nan nan nan nan nan nan nan nan nan nan nan nan nan nan nan nan nan nan nan nan nan nan nan nan nan nan nan -15 -15 -14 -9 -12 -12 -16 nan nan nan nan nan nan nan nan nan nan nan nan nan nan nan nan nan nan nan nan nan nan nan nan nan nan nan nan nan nan nan nan nan nan nan nan
nan nan nan nan nan nan nan nan nan nan nan nan nan nan nan nan nan nan nan nan nan nan nan nan nan nan nan nan nan nan nan nan nan nan nan nan nan nan nan nan nan nan nan nan nan nan nan nan nan nan -14 nan nan nan nan nan nan nan nan nan nan nan nan nan nan nan nan nan nan nan nan nan nan nan nan nan nan nan -9 nan nan nan nan nan nan nan
nan nan nan nan nan nan nan nan nan nan nan nan nan nan nan nan nan nan nan nan nan nan nan nan nan nan nan nan nan nan nan nan nan nan nan nan nan nan nan nan nan nan nan nan nan nan nan nan nan nan nan -1 nan nan nan nan nan nan nan nan nan nan nan nan nan nan nan nan nan nan nan nan nan nan nan -18 -8 -8 -8 -13 -13 nan nan nan nan nan
Wind_Speed
2 2 2 2 2 2 1 2 2 1 1 0 0 0 0 0 1 1 1 1 1 1 2 2 3 3 3 4 5 5 5 5 5 5 6 6 6 7 7 7 7 7 7 7 7 8 8 8 8 8 8 8 8 8 8 8 8 8 8 8 7 7 7 7 7 7 6 6 6 6 5 5 4 4 4 4 4 4 4 5 5 6 6 7 7 7
2 1 1 2 2 2 2 2 2 1 0 1 1 1 1 1 1 1 1 1 0 1 2 3 3 3 3 3 4 5 5 5 5 5 6 6 6 6 6 6 6 6 6 6 6 7 7 7 7 7 8 8 8 8 8 8 8 7 7 7 7 7 7 7 6 6 6 6 6 6 5 5 5 5 4 4 4 4 5 5 6 6 7 7 7 7
2 1 1 1 2 2 2 2 1 1 1 0 0 1 1 1 1 1 1 1 1 1 1 3 3 4 3 2 3 4 5 5 5 5 5 5 5 5 5 5 5 5 5 5 6 6 6 6 7 7 7 7 7 7 7 7 7 7 7 7 7 7 6 6 6 5 5 5 5 5 5 5 5 5 5 5 5 5 5 6 6 6 7 7 7 8
2 2 2 1 1 2 2 1 1 1 1 1 0 0 0 0 1 1 1 1 1 1 1 2 3 4 3 2 2 3 4 4 4 4 4 4 4 4 4 4 4 5 5 5 5 6 6 6 6 6 6 7 7 7 7 7 7 7 7 7 7 6 6 5 5 5 4 4 4 4 4 5 5 5 5 6 6 6 6 6 6 7 7 7 8 8
2 2 2 1 1 1 1 1 0 1 1 0 0 0 0 0 0 1 1 1 1 1 1 2 2 3 3 2 1 2 3 3 3 3 3 3 3 3 3 4 4 4 5 5 5 6 6 6 6 6 7 7 7 7 7 7 7 7 7 7 6 6 6 6 5 5 4 4 4 4 4 4 5 5 5 6 6 6 6 6 7 7 7 8 8 8
1 1 1 1 1 1 1 0 1 1 0 0 0 0 0 0 0 0 1 1 2 1 1 1 1 2 3 2 2 2 2 2 2 2 2 2 2 3 3 3 4 4 5 5 6 6 6 7 7 7 7 7 7 7 7 7 7 6 6 6 6 6 6 6 6 5 5 5 4 4 4 4 4 5 5 6 6 6 7 7 7 7 8 8 8 8
1 1 1 1 1 1 1 1 1 1 1 0 0 0 0 0 0 1 1 1 1 1 1 1 1 1 2 2 2 2 2 2 2 1 1 2 2 2 3 4 5 5 6 6 7 7 7 7 8 8 7 7 7 7 7 7 7 6 6 6 6 6 6 6 6 5 5 5 5 4 4 4 4 5 5 5 6 6 7 7 7 7 8 8 8 8
1 1 1 1 1 0 0 1 1 1 1 1 1 1 1 1 1 1 1 1 1 1 1 1 2 2 1 1 1 1 1 1 1 1 1 2 2 3 4 5 6 6 7 7 7 8 8 8 8 8 7 7 7 7 7 7 6 6 6 5 5 5 6 6 6 5 5 5 5 5 5 5 5 5 5 5 6 6 7 7 7 7 7 7 7 7
2 2 1 1 1 1 0 1 1 0 1 2 2 1 1 1 1 1 1 1 1 1 1 2 2 2 2 1 1 1 2 2 1 1 1 1 2 2 3 4 5 6 7 7 7 8 8 8 8 8 7 7 7 7 7 6 6 6 5 5 5 5 5 5 5 5 5 5 5 5 5 5 5 5 6 6 6 6 7 7 7 7 7 7 7 7
2 2 1 1 1 1 1 0 1 1 1 2 2 2 2 1 1 1 2 2 2 1 1 2 1 1 2 2 2 2 2 2 3 4 4 4 4 4 4 4 4 4 6 7 7 8 9 9 8 7 7 7 6 6 6 6 6 5 5 5 5 5 5 5 5 5 5 6 6 6 6 6 6 6 6 7 7 7 6 6 6 6 6 6 6 6
2 1 1 1 1 1 1 1 0 1 1 2 2 2 2 2 2 2 2 1 2 2 2 1 1 0 1 2 2 2 2 2 3 4 5 6 6 6 6 5 4 5 6 7 8 9 9 9 8 7 6 6 6 5 5 5 5 5 5 4 4 4 4 4 5 5 5 5 6 6 6 6 6 7 7 7 7 6 6 6 6 6 6 6 6 6
1 1 1 1 1 1 1 1 1 1 2 2 2 2 2 1 1 2 2 0 1 1 1 1 1 1 1 1 0 1 2 2 2 2 3 4 4 4 4 4 4 5 5 6 7 8 8 8 8 7 6 5 5 4 4 4 4 4 5 4 4 4 4 4 4 4 5 5 5 6 6 6 6 7 7 7 6 6 6 5 5 5 6 6 6 5
1 1 1 1 1 1 1 1 1 1 2 2 1 1 0 1 0 1 2 1 1 1 0 1 1 1 1 0 1 1 1 1 1 2 2 2 2 2 2 2 2 2 3 3 4 5 6 7 6 6 5 4 4 4 4 4 4 5 5 5 5 5 5 5 5 5 5 5 5 5 6 6 6 6 6 6 6 5 5 5 5 5 6 6 5 5
1 1 1 1 1 1 1 1 1 1 1 1 1 1 1 1 1 1 1 1 1 1 0 1 1 2 2 1 1 1 1 1 1 2 2 2 2 1 0 1 1 1 1 2 2 3 4 4 3 3 4 3 3 3 3 4 5 6 6 6 6 6 6 6 6 5 5 5 5 5 5 5 5 5 5 5 5 5 5 5 5 5 6 6 6 6
1 2 2 1 0 0 0 1 1 1 1 1 1 1 1 1 1 2 2 1 2 2 2 2 2 2 2 2 1 1 1 1 1 2 2 3 2 1 0 0 1 1 1 1 2 3 4 2 1 1 2 2 2 2 3 4 5 7 7 7 7 7 7 7 7 6 6 6 6 6 6 5 5 5 5 5 5 5 5 5 5 5 6 6 6 6
1 2 2 1 1 0 0 1 1 1 1 1 1 1 1 1 1 1 1 1 1 1 2 2 2 2 2 2 2 1 1 2 1 1 2 3 3 1 1 1 1 1 1 1 2 2 3 2 1 1 1 2 4 5 6 6 7 7 8 8 8 8 8 8 7 7 7 7 7 7 6 6 6 6 6 6 6 6 6 6 6 6 6 6 6 6
1 2 2 1 1 0 0 1 1 1 1 1 1 1 1 1 1 1 1 1 1 1 1 1 1 1 2 3 3 2 1 2 1 1 1 2 3 2 0 1 1 1 1 1 2 2 2 2 1 1 1 4 6 7 7 7 8 8 8 8 8 8 8 8 8 8 8 7 7 7 7 7 7 6 6 6 6 6 6 6 6 6 6 6 6 6
1 1 1 1 1 1 0 1 1 1 1 1 1 1 1 1 1 1 1 1 1 1 1 1 1 1 1 2 3 2 0 2 2 1 1 2 3 2 0 1 1 0 1 1 2 2 2 2 1 2 3 6 7 8 8 8 8 8 8 8 9 9 8 8 8 8 8 8 8 8 8 8 7 7 7 7 7 7 7 7 7 7 7 7 7 7
1 1 1 1 1 1 1 1 1 1 1 1 1 1 1 1 1 1 1 1 1 2 2 1 1 1 1 2 3 2 1 2 2 2 1 2 3 3 1 1 1 0 1 2 2 2 2 2 2 4 6 8 9 8 8 7 7 8 8 9 9 9 9 8 8 8 8 8 8 8 8 8 8 8 8 8 7 7 7 7 7 7 7 7 7 7
1 1 1 2 1 1 1 1 1 1 1 1 1 2 1 1 1 1 1 0 1 1 2 2 1 1 2 2 3 2 1 2 3 2 1 2 3 3 2 1 1 1 1 2 2 2 2 2 2 4 7 8 8 8 7 7 7 8 8 9 9 8 8 8 8 8 8 8 8 8 8 8 8 8 8 8 8 8 8 8 7 7 7 7 7 7
1 1 1 1 2 2 1 0 1 1 2 2 2 2 1 1 1 1 1 0 0 1 1 1 1 2 2 2 3 2 1 2 3 2 1 1 2 3 2 0 1 1 1 2 2 2 1 1 2 3 5 8 8 8 7 6 7 7 8 8 8 8 7 7 7 7 7 7 7 7 8 8 8 8 8 8 8 8 8 8 7 7 7 7 7 7
1 1 1 1 2 2 2 1 1 2 3 3 2 2 1 1 1 0 1 0 0 0 0 1 2 3 2 2 3 3 1 2 2 2 1 1 2 3 2 0 1 1 1 2 2 2 1 1 2 3 6 8 8 7 6 6 6 7 7 7 7 7 7 6 6 6 6 6 6 6 7 7 7 7 8 8 8 8 7 7 7 7 7 7 7 8
2 1 1 2 2 2 2 2 2 2 3 3 3 3 3 3 2 2 2 1 1 2 2 3 2 2 2 2 3 2 1 2 3 3 2 0 2 3 2 1 1 1 2 2 2 2 2 2 2 3 6 8 7 6 4 5 5 6 7 7 7 7 7 7 7 7 7 6 6 6 6 6 7 7 7 7 7 7 7 7 7 8 8 8 8 8
3 3 3 3 2 2 2 2 2 2 2 2 2 2 2 3 3 3 2 2 2 2 1 1 1 2 2 3 3 2 1 2 3 3 2 1 2 2 2 1 1 2 2 2 2 2 2 2 2 3 4 6 5 4 3 4 5 6 6 7 7 7 7 7 8 8 7 7 7 7 7 7 7 7 7 7 7 7 7 7 8 8 8 9 9 9
3 3 3 3 3 3 3 3 3 3 2 2 2 1 1 1 1 1 0 1 1 0 1 2 2 2 2 2 2 2 2 0 2 3 3 1 1 2 2 1 1 1 3 3 2 2 2 3 3 3 3 3 3 2 3 4 5 6 6 7 7 7 7 8 8 8 8 8 8 8 8 8 8 8 8 8 8 8 8 8 8 9 9 9 10 10
4 4 4 4 4 4 5 5 5 4 3 2 2 1 1 1 2 2 2 1 1 1 1 1 1 2 2 2 2 2 2 1 1 3 3 1 1 2 2 1 0 1 2 3 2 2 3 3 3 2 2 2 2 3 4 5 6 6 7 7 7 8 8 8 8 8 8 9 9 9 9 9 9 9 9 9 9 9 9 9 9 9 10 10 10 10
4 4 5 4 4 4 4 3 3 2 2 1 1 1 1 2 2 2 2 1 0 1 1 0 1 1 2 2 2 2 2 1 1 2 3 2 1 1 2 1 1 1 2 3 3 3 4 4 3 2 2 2 2 3 5 6 7 7 7 8 8 8 8 8 8 8 9 9 9 9 10 10 10 10 10 10 10 10 10 10 10 10 10 10 9 8
3 4 4 3 3 2 2 1 1 1 2 3 3 3 1 2 2 0 2 2 1 1 1 1 1 1 1 1 2 2 1 0 0 1 2 3 1 1 2 1 1 1 2 2 3 4 4 3 2 2 2 2 2 3 5 6 7 8 8 8 8 8 8 8 8 8 8 9 9 9 10 10 10 11 11 11 11 11 11 11 11 11 10 8 5 3
2 2 2 2 1 1 1 1 2 4 5 5 6 4 1 2 3 3 3 1 1 1 0 1 1 1 1 1 2 2 1 1 1 1 2 3 1 1 2 1 1 1 2 2 3 3 3 2 2 1 1 2 2 2 3 5 6 7 7 8 8 8 8 9 9 9 8 9 9 9 10 10 11 11 11 11 11 12 12 12 11 10 7 5 3 2
0 1 1 2 2 2 2 1 2 4 5 6 6 5 2 2 3 3 3 1 1 1 1 1 1 1 1 1 1 2 2 2 2 0 3 2 1 1 1 1 1 1 2 2 2 2 2 2 2 2 1 2 2 2 3 4 4 4 4 5 6 6 7 8 9 9 9 9 9 10 10 10 11 11 11 11 11 12 12 12 11 8 4 2 2 2
2 2 2 2 2 1 1 1 1 2 4 4 4 4 2 1 2 2 2 2 2 2 2 1 1 1 1 1 0 1 2 3 2 1 3 2 1 1 0 1 1 1 1 2 2 1 2 3 3 2 2 3 3 3 3 3 3 3 2 2 3 3 6 7 8 9 9 10 10 10 10 10 10 10 10 11 11 11 11 12 10 7 3 2 2 2
2 2 2 1 1 0 0 1 1 1 1 1 2 2 1 1 2 2 2 2 2 2 2 2 1 1 1 1 1 1 2 3 3 1 3 2 1 1 1 1 0 1 1 2 2 1 1 2 2 3 2 3 3 3 4 4 3 3 2 1 1 2 5 6 7 7 8 9 10 10 10 11 11 10 10 10 10 10 11 11 10 7 3 2 2 2
1 1 1 0 0 0 1 1 1 1 1 1 1 1 1 2 2 2 2 2 2 3 2 2 1 1 1 1 1 2 2 3 2 2 3 3 1 0 0 1 0 1 1 1 2 2 1 2 2 2 2 2 2 3 3 4 3 2 1 1 1 2 4 4 5 5 5 6 7 8 9 10 10 10 10 10 10 10 10 10 10 8 5 3 2 2
0 0 0 0 1 1 1 1 1 1 2 2 2 2 2 1 1 1 1 1 2 2 3 3 2 2 1 1 1 1 2 3 2 0 3 3 2 1 1 1 1 0 1 0 0 1 1 2 2 2 3 2 2 2 3 3 3 2 1 1 1 2 3 3 3 3 4 4 4 5 6 7 8 9 9 9 9 10 10 10 10 9 8 5 3 3
1 1 1 1 1 1 2 1 1 1 1 2 2 2 2 2 1 1 1 1 1 2 2 3 3 3 3 2 1 1 2 3 2 2 3 3 2 1 1 0 0 1 1 1 1 1 1 2 3 3 3 3 2 2 3 3 2 2 2 2 2 2 2 2 2 3 3 3 3 3 3 4 4 5 6 7 8 9 10 10 10 10 10 8 6 4
1 1 1 1 2 2 2 2 1 1 1 2 2 2 2 2 2 1 1 1 1 1 1 2 2 3 4 3 3 2 3 3 1 2 3 2 2 2 1 0 0 1 1 0 1 1 2 2 3 4 4 3 3 3 3 2 2 3 3 3 3 3 3 3 3 3 2 3 3 3 3 3 3 3 4 7 9 10 10 10 10 10 10 10 9 8
0 1 1 2 2 2 2 2 1 1 1 2 2 2 2 2 2 2 1 1 1 1 1 1 1 2 2 3 3 3 3 2 1 1 2 2 3 3 1 1 0 0 0 1 1 2 2 3 3 3 3 3 2 2 3 3 3 3 3 3 3 3 4 4 4 3 2 3 3 3 3 3 3 3 5 7 8 9 9 10 10 10 11 11 11 11
1 1 2 1 1 1 1 1 1 1 2 2 2 2 2 2 2 2 1 1 1 1 1 1 1 1 2 2 2 3 3 2 1 0 1 2 3 3 2 1 1 1 1 1 1 2 2 2 3 3 3 3 3 3 4 3 3 3 3 3 3 3 3 3 3 3 2 3 4 4 4 4 4 4 4 5 4 4 4 5 6 7 9 9 10 11
1 1 2 2 2 1 1 2 2 2 2 2 2 2 2 2 2 1 1 1 1 1 1 1 1 1 2 2 3 3 3 3 2 1 1 2 2 2 2 1 1 1 1 1 1 2 2 2 3 3 3 3 3 3 3 3 3 3 3 3 3 2 3 2 2 3 3 3 4 4 5 4 4 3 3 3 2 2 2 2 3 4 4 4 5 7
1 2 2 2 2 2 2 2 2 2 1 1 1 1 1 1 1 1 1 1 0 1 1 1 1 1 2 3 3 4 4 3 3 2 2 2 2 2 2 2 2 2 1 1 2 2 2 3 3 4 4 4 4 4 4 3 3 4 5 4 3 2 2 2 2 2 2 2 3 3 3 3 3 3 2 2 2 2 2 2 2 3 2 1 2 3
2 2 2 2 2 2 2 2 2 1 1 1 1 1 1 1 1 1 1 1 1 1 1 1 1 1 2 2 3 3 4 4 4 4 3 3 3 3 3 3 2 2 2 2 2 2 2 3 3 4 4 4 5 5 5 4 5 6 7 5 4 4 4 4 3 3 2 2 3 3 3 4 4 4 3 3 3 3 3 3 3 3 2 1 1 1
2 2 2 2 2 1 1 1 0 1 1 1 1 1 1 1 1 1 1 1 1 1 1 0 1 1 3 3 3 3 4 4 5 5 5 5 5 4 4 3 3 2 2 2 2 3 3 4 4 4 4 4 4 4 4 4 5 5 5 5 5 5 5 4 3 2 1 2 3 3 4 4 4 4 4 4 3 4 4 4 4 4 4 2 1 1
2 2 2 2 1 1 0 1 1 1 1 1 0 1 2 2 2 2 2 1 1 1 1 1 1 1 1 2 3 3 3 4 4 5 6 5 5 5 5 4 4 3 3 2 2 3 3 4 4 4 3 3 4 4 5 5 5 5 4 4 5 5 4 3 2 2 2 3 3 3 3 3 4 4 4 4 3 3 3 4 5 6 5 3 2 2
2 2 2 1 1 0 1 1 1 1 0 0 1 1 2 2 2 3 2 1 1 1 1 1 0 0 1 2 2 3 3 3 3 3 5 6 6 6 5 5 4 4 3 3 3 3 3 4 4 3 3 3 4 5 5 5 5 5 4 4 5 4 4 3 3 4 4 4 4 3 3 3 4 4 4 4 4 3 3 3 3 4 4 4 4 4
1 1 1 0 1 1 1 1 1 1 1 1 2 2 2 2 2 3 2 2 1 1 1 0 0 0 1 1 2 2 3 3 2 2 2 5 7 7 6 5 4 4 4 4 4 3 3 3 3 3 3 3 4 5 6 6 6 5 5 5 5 5 4 4 4 4 4 4 4 4 3 3 3 4 4 4 4 4 4 3 3 4 4 4 4 4
1 0 0 0 0 0 1 1 1 1 1 2 2 2 2 2 2 2 2 2 2 1 1 1 1 1 2 2 2 2 2 2 2 1 1 3 5 6 6 5 5 5 4 5 5 5 4 4 4 3 3 4 5 5 6 6 6 5 5 5 5 4 5 4 4 4 4 4 4 3 3 3 3 3 4 4 4 4 4 4 4 4 4 4 4 4
1 1 1 0 1 1 1 1 1 1 2 2 2 2 2 2 2 2 2 2 2 1 1 1 1 2 2 2 2 1 2 2 2 1 1 2 3 4 4 4 5 6 5 5 5 5 5 5 5 4 4 5 5 5 6 5 5 5 5 4 4 4 4 4 3 3 3 4 4 4 3 3 3 3 4 5 5 5 4 4 4 4 4 4 4 4
2 2 2 1 1 1 1 1 1 2 2 2 2 2 2 2 3 3 2 2 2 2 1 1 1 2 3 3 2 2 2 2 2 2 2 2 2 3 3 3 4 5 5 6 6 6 6 6 6 6 6 5 6 6 6 5 5 5 4 4 4 4 5 4 3 3 3 4 4 4 3 3 4 4 5 5 5 5 4 4 4 4 4 4 4 4
2 2 2 2 2 2 2 2 2 2 2 3 2 2 2 2 3 4 2 2 2 2 2 2 2 3 3 3 2 3 3 3 3 3 2 2 1 1 2 3 3 3 3 4 5 5 5 6 7 8 8 7 7 7 7 6 5 4 4 4 4 4 5 4 4 3 4 4 4 4 4 4 4 4 4 5 6 6 6 5 4 4 4 4 4 4
2 2 2 2 2 2 2 2 2 3 3 3 2 2 2 1 2 2 2 2 2 2 2 3 3 3 3 3 3 3 3 3 3 3 3 2 1 1 2 2 2 2 2 2 3 3 3 4 5 7 9 10 9 8 7 6 5 4 4 4 4 4 4 4 4 4 4 4 4 4 4 4 4 4 4 5 6 7 7 6 5 4 4 3 4 4
3 3 3 3 3 3 3 3 3 3 3 3 3 2 2 1 1 1 2 2 2 2 2 3 3 3 4 4 4 3 3 4 3 3 3 2 2 2 2 2 2 2 2 2 2 2 2 2 3 4 6 10 12 11 7 6 5 4 4 4 4 3 3 4 4 4 5 5 4 4 3 3 3 3 3 4 5 6 7 6 5 5 4 3 4 4
Wind_Direction
111 124 133 135 127 112 97 83 76 68 40 309 275 254 236 269 254 242 226 210 182 154 140 127 109 88 68 63 67 74 80 84 89 92 94 91 87 84 79 74 69 65 60 56 52 47 43 39 35 30 27 23 20 16 13 10 8 6 5 4 4 4 5 6 8 10 13 20 25 28 29 29 30 31 31 23 15 9 6 3 0 359 358 356 351 345
112 116 121 123 121 118 118 106 95 85 53 303 318 347 1 348 329 314 311 304 144 133 128 122 111 99 79 61 65 73 78 82 86 88 88 86 83 79 74 69 64 58 53 48 43 38 34 30 26 22 18 15 11 7 3 0 358 356 355 355 355 357 359 1 5 7 10 15 18 18 15 11 8 5 3 358 355 354 355 355 352 350 348 346 343 338
132 124 124 115 112 114 118 117 118 131 192 236 319 357 4 353 338 325 327 338 1 64 104 114 112 106 95 71 68 73 77 80 82 83 82 80 76 71 66 60 54 47 41 35 30 25 21 17 14 10 7 3 360 356 353 350 347 345 344 343 343 345 348 351 355 360 4 7 9 8 5 1 356 353 349 346 345 345 347 347 346 343 341 338 334 331
138 132 133 118 102 98 102 110 130 174 199 208 242 321 36 10 319 302 304 335 12 30 54 93 105 108 104 87 72 73 80 81 81 80 77 73 67 61 54 46 38 31 24 18 12 8 4 0 357 354 351 348 345 343 341 339 337 335 333 332 331 331 333 336 339 343 347 351 353 354 354 352 349 347 345 344 343 341 340 340 338 335 332 328 325 323
130 126 129 121 107 96 90 100 161 221 224 211 214 209 144 177 253 295 328 12 27 31 28 66 98 110 115 113 106 98 96 92 87 82 75 68 60 51 40 29 19 10 3 357 352 349 345 342 339 337 335 333 331 330 329 327 325 324 323 322 321 320 319 321 323 324 325 327 329 332 336 338 340 340 342 342 340 338 335 333 330 327 324 321 319 317
119 110 112 113 114 116 116 178 230 240 242 237 222 177 143 161 131 9 15 26 28 27 15 37 88 114 125 138 149 149 131 114 104 94 82 69 54 38 22 8 358 350 344 339 336 333 331 328 326 325 324 323 322 322 321 319 318 317 315 314 313 312 310 311 311 311 312 311 312 314 318 323 327 331 334 335 333 331 329 326 323 320 318 316 314 313
109 90 90 93 105 120 147 213 221 216 161 154 49 27 49 61 62 53 53 52 45 28 6 1 26 73 112 138 151 154 144 126 112 99 78 51 28 11 357 345 338 334 331 328 327 325 324 322 321 321 320 321 322 322 321 320 317 315 312 311 309 307 305 305 305 304 304 303 303 305 307 310 315 318 321 322 322 322 320 318 316 314 312 311 310 308
121 107 97 102 105 107 174 247 236 192 137 121 98 62 23 12 8 18 23 35 43 40 25 4 5 12 24 64 99 110 114 99 77 48 35 22 5 351 339 332 327 326 325 325 325 325 325 323 322 323 324 326 327 328 327 326 323 320 316 313 310 307 305 304 303 302 302 301 301 301 301 301 302 304 305 307 308 309 309 309 309 308 307 306 304 302
134 141 154 154 144 136 116 305 300 300 112 111 110 106 92 23 1 358 9 8 13 28 50 35 15 359 346 358 33 59 60 58 42 13 4 8 352 335 325 322 321 322 324 326 329 330 329 328 328 329 331 334 336 336 336 334 332 329 324 320 316 312 309 307 305 304 303 301 300 298 297 295 295 294 295 295 297 298 299 300 301 302 302 300 299 297
130 140 154 165 152 135 126 154 292 308 49 88 103 113 115 91 50 23 19 0 348 353 38 57 42 0 331 337 359 28 43 30 11 358 354 345 334 326 320 320 321 323 329 333 336 336 335 333 334 336 340 342 344 344 344 343 341 338 334 330 325 319 315 311 307 304 301 299 297 295 293 292 291 289 288 289 289 290 291 293 295 296 296 295 295 295
111 116 113 77 46 74 106 132 223 316 31 53 58 59 70 81 85 75 45 0 338 339 359 33 68 57 307 321 342 10 38 23 6 355 351 342 336 333 332 335 338 342 345 345 344 341 337 336 337 341 345 346 347 348 350 350 348 344 341 336 329 322 315 309 304 299 296 293 291 289 288 287 286 285 283 284 285 286 288 290 292 292 292 291 292 294
103 98 91 76 51 42 56 53 19 19 40 48 46 33 18 27 80 102 99 65 314 322 332 329 305 228 202 227 343 19 38 30 6 350 344 339 337 337 338 347 357 4 3 357 348 341 336 335 337 341 344 345 346 348 353 352 349 345 342 337 330 322 314 308 301 296 292 289 286 284 282 281 281 280 279 281 283 285 287 288 289 289 289 289 291 295
84 85 82 73 67 63 64 50 33 27 39 61 78 85 2 317 49 97 107 151 226 247 267 326 318 304 282 175 83 61 51 32 3 343 339 332 329 331 343 356 7 14 15 4 347 333 329 332 336 339 339 341 344 348 352 348 344 341 337 332 328 323 317 311 306 300 295 290 286 283 279 279 279 279 280 282 283 285 285 285 286 287 289 290 293 295
60 62 65 64 64 74 102 106 100 85 62 92 125 156 192 222 64 68 67 9 301 285 44 19 337 320 336 350 30 71 78 49 14 352 344 320 307 300 330 357 357 1 23 8 334 315 312 325 334 337 335 340 345 349 349 341 335 330 327 325 322 319 316 313 309 305 301 298 294 290 286 284 283 283 283 283 283 283 283 283 285 288 291 293 294 296
87 83 82 87 103 137 149 118 112 112 128 154 166 166 155 49 54 62 64 10 337 338 20 12 351 336 341 333 340 30 83 69 38 4 337 310 294 278 148 57 9 352 14 358 318 301 302 314 319 315 322 329 325 321 321 321 319 318 317 315 313 311 309 307 305 303 301 299 297 295 292 288 286 284 282 282 281 281 282 283 284 286 288 290 292 294
111 107 118 137 155 179 186 123 119 125 155 179 147 102 77 54 55 68 79 41 1 4 28 18 359 343 333 320 318 337 82 79 67 17 329 303 293 284 120 90 38 348 344 327 299 290 298 303 294 277 285 300 304 307 309 309 311 313 313 311 308 305 303 300 298 297 295 295 294 292 290 287 284 281 279 279 279 279 280 280 281 281 282 283 285 286
101 108 126 132 145 173 222 113 124 137 156 150 109 101 108 115 115 107 101 90 51 39 46 56 33 343 319 312 309 311 85 95 90 49 333 302 294 289 119 109 100 316 306 296 284 281 288 290 286 275 270 293 302 306 309 310 312 313 313 311 308 304 300 296 293 291 289 288 288 287 286 284 281 279 276 275 275 275 275 276 276 276 277 277 279 279
87 108 120 124 141 163 155 103 111 124 120 100 80 69 82 102 111 110 111 108 102 93 90 102 132 184 267 289 285 279 179 109 95 59 351 307 296 292 325 107 119 170 281 284 281 278 278 272 263 272 292 303 306 308 310 312 314 315 315 312 309 304 300 295 291 288 285 284 283 282 281 281 279 277 275 273 272 271 271 272 272 273 274 274 275 276
104 118 121 136 149 153 129 120 114 109 96 102 90 66 42 29 45 69 86 113 133 141 144 146 172 205 218 250 262 260 190 109 91 64 358 308 297 296 325 60 73 47 293 280 276 275 276 273 281 293 306 310 311 311 312 315 317 318 317 313 309 304 299 294 290 287 284 282 280 278 277 277 276 275 274 272 270 269 269 269 270 271 272 273 274 277
132 134 154 156 143 121 94 93 103 113 119 119 104 88 71 42 35 40 42 84 137 145 142 148 182 222 227 246 261 269 245 85 76 59 345 297 290 292 312 36 57 1 308 280 272 269 274 282 298 309 314 312 312 312 314 318 321 320 317 313 309 304 299 294 290 286 283 280 278 276 275 274 273 272 272 270 268 267 267 268 270 271 273 274 276 277
133 184 213 161 132 113 107 119 119 115 116 101 89 81 78 63 45 26 350 19 58 80 98 145 210 225 223 240 258 266 254 79 76 65 341 302 292 292 297 18 62 21 308 283 275 272 281 293 301 309 312 311 311 313 317 321 322 320 317 314 311 308 305 300 294 289 283 279 276 274 272 271 271 269 268 267 266 266 266 268 270 271 273 274 275 276
140 189 226 147 116 114 124 138 128 114 108 99 98 102 114 109 103 108 267 234 100 139 203 222 225 225 221 239 253 254 187 116 113 117 82 328 301 292 290 338 51 25 304 283 280 283 295 302 302 304 308 310 312 315 321 322 321 318 317 317 317 317 316 313 308 302 295 289 285 280 276 275 273 271 269 267 266 266 266 267 269 270 271 272 272 273
125 136 118 95 99 108 119 124 119 107 101 107 124 143 156 155 165 184 203 191 190 201 215 226 234 244 250 261 265 260 197 138 126 119 107 320 283 284 290 346 20 353 292 278 281 293 311 306 301 299 303 309 312 317 323 320 318 316 316 319 321 322 323 323 321 319 316 311 305 299 293 288 283 279 276 273 271 269 267 267 267 268 268 269 270 271
104 106 100 97 102 110 114 112 107 97 93 105 123 148 164 168 175 183 188 184 183 188 209 268 315 320 309 290 282 277 256 139 120 112 112 184 259 272 290 341 349 322 286 274 277 294 316 307 300 296 298 306 310 314 316 314 312 313 314 316 318 319 321 321 322 321 320 316 312 308 302 297 292 288 285 282 277 273 270 269 268 267 267 268 269 270
104 109 111 117 120 121 117 111 106 101 97 95 97 108 138 169 189 190 164 147 138 108 44 21 354 326 304 295 290 291 299 116 113 114 121 165 260 278 288 312 321 296 284 282 290 309 319 307 301 299 302 304 305 307 306 306 307 308 309 310 311 313 313 314 314 313 312 309 306 303 299 296 292 290 288 285 282 278 274 272 271 270 270 271 271 272
113 121 128 128 124 119 112 108 108 109 112 112 112 105 76 40 26 16 7 358 5 46 52 23 329 297 291 297 296 297 301 340 98 116 127 135 253 289 291 294 291 286 290 296 306 316 314 303 300 300 307 299 302 306 305 306 306 305 305 305 306 307 307 308 307 306 305 302 300 297 295 292 290 288 286 284 282 280 278 276 275 275 274 275 276 277
110 115 118 118 115 110 105 107 112 121 133 160 180 173 117 78 53 19 336 307 276 139 128 158 268 286 298 302 293 287 289 316 85 114 124 120 123 285 284 289 308 323 311 307 306 304 302 297 293 293 299 294 305 313 312 311 310 308 307 308 308 308 308 309 307 305 303 301 299 296 294 292 290 288 286 284 282 281 279 278 278 277 278 278 279 282
104 107 107 111 113 117 121 133 203 256 266 265 260 247 150 108 105 178 257 249 210 124 132 170 203 243 276 278 277 279 288 300 206 143 116 108 115 256 270 287 327 1 338 316 306 301 300 296 293 292 293 300 314 321 316 314 314 314 314 314 314 315 315 313 312 309 306 303 300 297 295 293 291 289 287 285 283 282 281 280 280 280 281 282 285 292
103 117 126 145 171 196 219 255 272 275 275 275 273 268 224 141 155 191 223 218 155 98 151 193 198 206 231 263 283 302 322 312 267 169 106 100 116 252 269 311 356 13 5 337 325 319 316 311 310 309 307 323 331 329 317 317 317 318 318 318 318 319 318 318 316 313 310 307 303 300 297 295 292 290 288 286 284 283 282 281 281 281 282 284 286 287
140 179 198 225 235 240 240 255 269 273 273 275 278 278 266 172 169 185 204 182 147 140 206 215 209 205 209 308 331 328 317 297 279 212 102 101 124 264 290 341 358 11 31 17 0 342 325 318 316 322 335 347 343 333 318 317 315 315 314 316 318 318 318 318 318 317 315 312 308 305 301 298 295 292 289 287 285 284 282 282 281 281 281 283 280 276
199 193 200 229 244 247 229 212 239 260 271 279 287 293 289 193 176 181 185 172 163 165 181 198 203 194 159 105 44 307 289 281 272 244 105 112 149 242 263 1 346 349 62 72 53 356 316 309 311 322 349 352 343 329 317 312 307 302 299 310 313 314 313 316 318 318 317 315 312 310 308 305 302 298 295 292 289 286 284 283 282 281 278 273 270 269
194 181 180 205 227 234 203 199 212 232 257 277 289 292 272 218 193 184 181 174 168 163 168 178 190 190 168 157 175 214 249 263 257 227 115 115 137 214 139 102 2 329 64 105 114 132 276 293 304 318 345 344 334 321 312 307 303 300 301 310 308 306 308 314 316 316 314 313 313 312 311 310 308 306 303 299 295 292 288 286 284 281 275 263 256 258
163 152 163 211 245 248 227 216 210 207 208 217 231 242 245 229 210 195 184 174 165 159 158 167 178 190 189 182 198 220 247 259 247 198 125 113 108 98 80 85 48 341 347 101 130 154 199 251 285 307 326 325 316 307 303 302 301 303 315 325 314 306 308 316 317 314 309 309 310 311 310 310 309 307 306 304 302 298 295 291 288 283 275 260 245 248
77 58 3 318 300 288 272 256 230 213 207 208 212 212 213 214 209 204 194 178 165 158 158 160 164 171 177 192 237 263 275 276 276 110 107 104 104 98 55 64 52 14 1 1 298 229 236 258 283 300 307 306 301 294 290 293 299 309 331 342 326 313 310 318 317 312 304 306 306 304 304 304 303 302 304 304 302 301 299 295 291 287 282 271 253 241
20 347 320 301 291 284 280 277 261 236 218 215 211 206 197 194 194 195 196 184 170 164 159 158 159 160 160 165 196 254 269 274 312 26 76 93 104 102 70 69 95 90 51 344 315 302 289 287 293 298 302 307 303 293 283 286 298 318 332 339 333 319 308 309 309 307 305 305 300 294 291 291 291 293 295 297 298 298 298 297 294 292 288 282 274 261
350 303 283 272 265 264 263 261 254 241 233 229 220 205 190 183 181 185 191 184 179 174 164 159 158 158 159 162 176 208 243 256 306 27 61 91 107 111 104 189 161 116 86 313 297 294 290 291 295 298 301 304 302 298 291 298 316 330 334 332 325 314 303 299 298 299 302 302 297 292 288 287 285 283 283 290 294 296 298 299 298 297 294 290 285 278
265 267 265 256 248 244 245 243 237 229 231 235 227 208 187 178 176 181 186 177 174 173 179 179 173 172 172 171 183 202 228 246 282 39 69 101 114 120 136 192 196 144 120 284 287 289 290 293 296 297 296 292 290 292 299 313 324 329 322 313 307 302 297 296 297 297 297 296 294 293 292 291 288 287 286 291 295 298 301 301 300 299 297 294 291 286
243 257 260 252 243 231 228 228 225 220 220 222 216 203 187 174 169 169 169 159 154 155 169 195 234 248 244 230 222 220 230 248 260 159 100 117 124 129 150 189 221 231 229 259 274 283 288 291 294 295 293 287 285 290 299 309 314 310 299 292 288 286 287 292 297 300 300 298 299 300 299 297 295 293 292 295 301 307 306 302 297 295 295 294 292 290
233 245 254 249 239 223 212 215 215 214 210 208 200 185 163 146 139 135 134 135 144 158 175 188 208 232 247 253 252 249 247 247 239 213 159 144 142 148 166 194 220 234 233 239 253 264 269 275 280 285 290 293 294 295 298 301 300 298 296 296 292 286 281 287 294 298 297 298 300 301 300 296 295 295 296 302 307 309 301 294 288 285 289 293 294 293
220 231 243 241 232 216 204 205 207 207 193 179 151 119 102 94 87 74 62 72 103 156 188 195 210 230 241 245 248 250 248 242 232 217 190 174 168 169 179 198 213 224 228 234 240 245 249 259 267 273 278 286 292 296 297 297 299 303 308 309 307 302 297 294 290 288 287 286 288 290 293 295 298 302 305 306 301 291 279 276 277 280 281 282 290 296
213 226 238 241 236 222 207 203 197 182 149 114 88 76 78 83 76 56 23 10 356 336 312 323 308 298 291 277 263 253 244 241 234 224 208 195 188 184 187 196 203 211 221 232 238 240 241 252 260 265 270 277 283 287 289 292 297 302 306 305 303 300 300 296 290 284 283 285 289 295 304 311 316 317 311 306 296 285 281 276 277 281 284 260 235 240
218 223 231 237 241 240 238 224 148 98 88 85 90 108 145 143 136 125 95 12 328 312 313 323 315 307 304 299 290 276 257 244 234 225 213 201 193 189 189 194 197 202 212 229 238 241 242 247 254 259 263 271 278 283 286 288 291 293 295 295 297 299 300 297 292 282 286 294 302 310 316 312 309 303 298 294 289 286 289 286 285 286 287 273 242 224
221 222 221 224 227 231 269 29 34 40 51 57 102 197 197 173 160 152 149 168 216 248 253 223 210 236 275 289 294 292 280 259 240 225 212 198 190 188 189 190 190 191 201 222 239 246 246 248 250 254 257 264 271 277 283 287 288 288 285 289 296 302 305 301 298 296 296 297 297 298 297 291 286 282 281 279 277 276 280 282 284 286 286 281 270 258
217 221 223 226 227 33 42 33 22 13 30 242 240 240 229 188 166 155 151 164 193 223 244 230 178 178 260 277 286 291 292 286 268 238 209 197 191 188 186 185 185 188 196 214 232 244 251 252 253 253 256 261 267 272 277 282 285 285 283 284 285 286 284 291 299 304 304 302 300 295 283 280 283 286 289 288 284 280 276 273 273 275 276 273 269 265
216 225 245 288 22 30 18 326 284 260 241 235 238 240 238 203 174 161 157 163 182 212 235 221 174 338 281 274 277 285 292 300 298 268 213 200 195 190 184 184 190 197 204 214 224 234 244 250 255 257 258 260 263 267 272 277 280 282 282 281 279 276 272 279 287 293 295 297 297 294 283 281 287 292 295 295 293 290 284 277 272 268 267 267 265 263
215 233 278 3 13 297 253 246 248 251 253 248 245 243 233 205 180 165 162 162 170 193 225 184 174 214 253 264 274 287 293 299 298 276 216 199 194 190 187 190 195 202 208 215 221 226 233 240 248 255 261 262 261 261 262 268 273 277 279 278 278 277 277 278 279 282 284 290 292 290 284 284 287 290 290 290 289 286 282 273 267 263 260 259 259 258
204 206 216 216 226 235 242 242 242 243 248 248 245 240 227 196 171 161 161 160 162 173 202 193 202 221 240 251 259 269 280 283 278 263 235 206 192 185 184 193 200 205 210 216 221 225 230 232 237 243 254 261 264 264 261 261 263 267 272 274 275 275 275 275 276 278 283 286 288 288 285 286 286 285 284 287 287 286 282 275 267 260 257 255 254 254
194 194 198 201 211 228 241 238 232 231 236 240 243 240 227 197 180 170 161 159 158 163 182 207 225 234 241 242 241 241 247 260 259 251 237 220 199 187 184 194 203 210 215 220 224 227 230 230 230 232 238 249 258 264 266 261 258 258 263 268 271 272 273 271 268 268 271 272 271 271 271 275 277 280 283 285 286 285 283 280 274 267 261 256 254 254
183 183 189 191 200 215 230 230 227 227 231 234 237 239 239 216 194 182 167 160 157 163 181 207 225 235 241 241 240 241 245 251 251 246 233 228 217 200 191 195 201 211 222 227 231 234 237 236 232 229 229 234 244 254 262 260 257 254 257 261 264 267 271 270 267 264 262 259 257 256 255 258 261 266 275 281 283 284 284 283 279 274 268 260 255 254
183 183 186 190 200 213 222 225 227 229 232 230 230 232 235 227 198 178 163 157 161 169 187 207 222 233 241 241 241 241 242 246 248 244 232 222 215 211 209 202 204 212 229 237 243 246 250 250 243 235 228 226 229 236 250 255 256 255 254 254 255 258 263 267 265 261 258 257 255 252 249 253 256 259 266 275 281 284 287 286 284 281 278 272 268 268
196 195 194 197 203 211 218 221 226 230 234 230 225 219 214 210 197 182 165 166 173 185 198 210 221 231 240 245 244 241 239 243 245 243 231 216 208 208 214 206 203 207 223 242 251 256 260 269 271 261 244 230 224 222 231 239 245 251 253 251 248 248 252 260 263 262 261 261 259 255 252 256 260 263 266 275 283 287 289 290 289 288 290 290 290 290